CYGNUS OA-9 (43474 NORAD) Tracking and Keplerian Element Data

This shows tracking and keplerian element data for the satellite.

Feedback or suggestion? Click here.




ElementValue
Catalog43474
NameCYGNUS OA-9
Epoch Orbit889
Epoch Day198.53415507
Epoch Year2018
RAAN227.7864
Inclination51.6393
Eccentricity0.0003862
Argument of Perigee338.7584
Mean Anonmoly117.5842
Mean Motion15.28740159
Decay Rate-2.569E-05
L11 43474U 18046A 18198.53415507 -.00002569 00000-0 -78067-4 0 9994
L22 43474 51.6393 227.7864 0003862 338.7584 117.5842 15.28740159 8899

Live tracking and technical data element details for CYGNUS OA-9 (NORAD 43474). CYGNUS OA-9 can be tracked NOW for your location showing map with azimuth and elevation plus other details from your city location.

Track the satellite on the map from your city or location and see movement details for azimuth, elevation, latitude, longitude, range, height, and movement on the map or in text.







IsCatalogInMostPopularTable: catalog: 43474, numindb: 9
Update: records affected: 1



GetName: 43474 CYGNUS OA-9

Hit Count: updated at: Wed, 18 Jul 2018 20:28:18 GMT